AAL1123 KMEM-KIND

Flight info

Callsign AAL1123
Flight time 0h 50m
Altitude 37000
Route CRSON7 HUMMS PXV EMBRR SMUKE3
Aircraft A20N/M-SDE2E3FGHIRWXY/LB1

Departure

Time 2026-05-07 03:06
Airport Memphis International Airport (KMEM)

Arrival

Time 2026-05-07 03:56
Airport Indianapolis International Airport (KIND)
Time Latitude Longitude Altitude Speed Heading
2026-05-07 02:50 35.04209 -89.98076 310 ft 0 kts 239°
2026-05-07 02:54 35.04213 -89.98068 309 ft 3 kts 239°
2026-05-07 02:54 35.04223 -89.98049 308 ft 3 kts 239°
2026-05-07 02:55 35.04236 -89.98031 310 ft 3 kts 198°
2026-05-07 02:55 35.04253 -89.98029 308 ft 0 kts 159°
2026-05-07 02:59 35.04248 -89.98027 308 ft 6 kts 159°
2026-05-07 02:59 35.04194 -89.97961 310 ft 13 kts 101°
2026-05-07 02:59 35.04146 -89.97824 313 ft 25 kts 173°
2026-05-07 02:59 35.03946 -89.97836 317 ft 26 kts 180°
2026-05-07 03:00 35.03819 -89.97848 317 ft 13 kts 210°
2026-05-07 03:00 35.03796 -89.97939 316 ft 12 kts 270°
2026-05-07 03:00 35.03795 -89.98043 314 ft 13 kts 268°
2026-05-07 03:00 35.03793 -89.98153 313 ft 13 kts 268°
2026-05-07 03:01 35.03790 -89.98262 313 ft 13 kts 268°
2026-05-07 03:01 35.03789 -89.98370 312 ft 13 kts 269°
2026-05-07 03:01 35.03775 -89.98471 311 ft 11 kts 231°
2026-05-07 03:01 35.03710 -89.98489 313 ft 9 kts 176°
2026-05-07 03:02 35.03633 -89.98484 316 ft 13 kts 176°
2026-05-07 03:02 35.03529 -89.98480 319 ft 17 kts 179°
2026-05-07 03:02 35.03393 -89.98477 320 ft 22 kts 179°
2026-05-07 03:02 35.03217 -89.98473 320 ft 28 kts 179°
2026-05-07 03:03 35.03011 -89.98469 320 ft 32 kts 179°
2026-05-07 03:03 35.02773 -89.98465 320 ft 36 kts 179°
2026-05-07 03:03 35.02547 -89.98465 324 ft 13 kts 201°
2026-05-07 03:03 35.02523 -89.98479 325 ft 0 kts 222°
2026-05-07 03:04 35.02453 -89.98475 327 ft 8 kts 161°
2026-05-07 03:04 35.02416 -89.98493 324 ft 8 kts 228°
2026-05-07 03:04 35.02407 -89.98564 329 ft 6 kts 269°
2026-05-07 03:04 35.02407 -89.98573 329 ft 1 kts 269°
2026-05-07 03:05 35.02421 -89.98668 326 ft 11 kts 302°
2026-05-07 03:05 35.02473 -89.98692 328 ft 6 kts 357°
2026-05-07 03:05 35.02655 -89.98695 321 ft 54 kts 360°
2026-05-07 03:05 35.03340 -89.98703 323 ft 141 kts
2026-05-07 03:06 35.04496 -89.98678 933 ft 181 kts
2026-05-07 03:06 35.05949 -89.98232 1416 ft 238 kts 16°
2026-05-07 03:06 35.07544 -89.97834 3264 ft 233 kts 11°
2026-05-07 03:06 35.09243 -89.97462 4158 ft 270 kts 10°
2026-05-07 03:07 35.11259 -89.97001 4555 ft 319 kts 10°
2026-05-07 03:07 35.13601 -89.96429 4839 ft 367 kts 10°
2026-05-07 03:07 35.16243 -89.95752 4945 ft 397 kts 11°
2026-05-07 03:07 35.18767 -89.95016 4992 ft 352 kts 17°
2026-05-07 03:08 35.20860 -89.93733 5230 ft 332 kts 28°
2026-05-07 03:08 35.22908 -89.92154 5950 ft 364 kts 31°
2026-05-07 03:08 35.25069 -89.90312 6652 ft 393 kts 33°
2026-05-07 03:08 35.27315 -89.88271 7323 ft 406 kts 34°
2026-05-07 03:09 35.29562 -89.86138 8000 ft 412 kts 35°
2026-05-07 03:09 35.31828 -89.83930 8714 ft 420 kts 36°
2026-05-07 03:09 35.34113 -89.81667 9481 ft 424 kts 36°
2026-05-07 03:09 35.36419 -89.79359 10333 ft 432 kts 36°
2026-05-07 03:10 35.38768 -89.76992 11201 ft 442 kts 36°
2026-05-07 03:10 35.41161 -89.74569 12093 ft 451 kts 36°
2026-05-07 03:10 35.43602 -89.72093 12993 ft 460 kts 35°
2026-05-07 03:10 35.46091 -89.69567 13924 ft 469 kts 35°
2026-05-07 03:11 35.48590 -89.67031 14751 ft 476 kts 34°
2026-05-07 03:11 35.51174 -89.64415 15628 ft 483 kts 34°
2026-05-07 03:11 35.53781 -89.61777 16525 ft 489 kts 34°
2026-05-07 03:11 35.56420 -89.59109 17440 ft 493 kts 34°
2026-05-07 03:12 35.59095 -89.56455 18378 ft 496 kts 32°
2026-05-07 03:12 35.61874 -89.53930 19210 ft 496 kts 28°
2026-05-07 03:12 35.64746 -89.51553 20070 ft 496 kts 26°
2026-05-07 03:12 35.67658 -89.49279 20941 ft 496 kts 25°
2026-05-07 03:13 35.70597 -89.47039 21852 ft 496 kts 24°
2026-05-07 03:13 35.73547 -89.44816 22787 ft 496 kts 23°
2026-05-07 03:13 35.76491 -89.42609 23730 ft 495 kts 23°
2026-05-07 03:13 35.79389 -89.40441 24529 ft 493 kts 22°
2026-05-07 03:14 35.82313 -89.38259 25351 ft 490 kts 22°
2026-05-07 03:14 35.85220 -89.36089 26226 ft 487 kts 22°
2026-05-07 03:14 35.90959 -89.31799 28013 ft 477 kts 21°
2026-05-07 03:15 35.93780 -89.29686 28961 ft 471 kts 21°
2026-05-07 03:15 35.96565 -89.27599 29758 ft 470 kts 21°
2026-05-07 03:15 35.99363 -89.25509 30435 ft 465 kts 20°
2026-05-07 03:15 36.02178 -89.23412 30593 ft 476 kts 20°
2026-05-07 03:16 36.04997 -89.21306 31109 ft 479 kts 20°
2026-05-07 03:16 36.07847 -89.19180 31725 ft 475 kts 20°
2026-05-07 03:16 36.10728 -89.17031 31972 ft 481 kts 20°
2026-05-07 03:16 36.13558 -89.14910 32319 ft 490 kts 20°
2026-05-07 03:17 36.16453 -89.12744 33047 ft 483 kts 20°
2026-05-07 03:17 36.19372 -89.10564 33214 ft 491 kts 20°
2026-05-07 03:17 36.22310 -89.08365 33463 ft 499 kts 20°
2026-05-07 03:17 36.25248 -89.06159 34068 ft 497 kts 20°
2026-05-07 03:18 36.28224 -89.03929 34465 ft 497 kts 20°
2026-05-07 03:18 36.31215 -89.01683 34662 ft 502 kts 19°
2026-05-07 03:18 36.34205 -88.99424 34941 ft 509 kts 20°
2026-05-07 03:18 36.37217 -88.97135 35413 ft 508 kts 19°
2026-05-07 03:19 36.40245 -88.94824 35809 ft 507 kts 19°
2026-05-07 03:19 36.43282 -88.92501 35979 ft 513 kts 19°
2026-05-07 03:19 36.46303 -88.90179 36580 ft 510 kts 19°
2026-05-07 03:19 36.49335 -88.87851 36853 ft 515 kts 19°
2026-05-07 03:20 36.52416 -88.85500 36978 ft 524 kts 19°
2026-05-07 03:20 36.58760 -88.80682 37042 ft 545 kts 19°
2026-05-07 03:20 36.62029 -88.78203 37066 ft 556 kts 19°
2026-05-07 03:21 36.65372 -88.75665 37054 ft 567 kts 20°
2026-05-07 03:21 36.72214 -88.70454 37056 ft 583 kts 20°
2026-05-07 03:22 36.79016 -88.65208 37060 ft 574 kts 20°
2026-05-07 03:22 36.85806 -88.59953 37066 ft 575 kts 20°
2026-05-07 03:23 36.92637 -88.54674 37063 ft 578 kts 20°
2026-05-07 03:23 36.99481 -88.49376 37061 ft 578 kts 20°
2026-05-07 03:24 37.06318 -88.44077 37065 ft 578 kts 20°
2026-05-07 03:24 37.13181 -88.38756 36935 ft 580 kts 20°
2026-05-07 03:24 37.16616 -88.36089 36629 ft 580 kts 20°
2026-05-07 03:25 37.20051 -88.33421 36054 ft 581 kts 20°
2026-05-07 03:25 37.22326 -88.31655 35499 ft 582 kts 20°
2026-05-07 03:25 37.25788 -88.28969 34432 ft 587 kts 20°
2026-05-07 03:25 37.29308 -88.26250 33876 ft 598 kts 21°
2026-05-07 03:26 37.32825 -88.23512 33493 ft 586 kts 21°
2026-05-07 03:26 37.36222 -88.20833 33245 ft 568 kts 21°
2026-05-07 03:26 37.39557 -88.18200 33141 ft 565 kts 20°
2026-05-07 03:27 37.46263 -88.12945 33083 ft 571 kts 20°
2026-05-07 03:27 37.53020 -88.07656 33073 ft 572 kts 20°
2026-05-07 03:28 37.59766 -88.02355 33078 ft 571 kts 20°
2026-05-07 03:28 37.66507 -87.97047 33088 ft 572 kts 20°
2026-05-07 03:29 37.73258 -87.91722 33098 ft 571 kts 20°
2026-05-07 03:29 37.79994 -87.86394 33101 ft 570 kts 20°
2026-05-07 03:30 37.86723 -87.81066 33098 ft 571 kts 20°
2026-05-07 03:30 37.93443 -87.75856 33098 ft 568 kts 18°
2026-05-07 03:31 38.00272 -87.70836 33097 ft 566 kts 18°
2026-05-07 03:31 38.07115 -87.65880 33103 ft 565 kts 17°
2026-05-07 03:32 38.13951 -87.60946 33104 ft 565 kts 17°
2026-05-07 03:32 38.20803 -87.55998 33093 ft 566 kts 17°
2026-05-07 03:33 38.27599 -87.51077 33084 ft 565 kts 17°
2026-05-07 03:33 38.34440 -87.46114 33076 ft 566 kts 17°
2026-05-07 03:34 38.41280 -87.41142 33079 ft 566 kts 17°
2026-05-07 03:34 38.48127 -87.36152 33085 ft 566 kts 17°
2026-05-07 03:35 38.54961 -87.31160 32840 ft 566 kts 17°
2026-05-07 03:35 38.58382 -87.28661 32368 ft 565 kts 17°
2026-05-07 03:35 38.61791 -87.26168 31563 ft 564 kts 18°
2026-05-07 03:35 38.65188 -87.23676 30458 ft 563 kts 18°
2026-05-07 03:36 38.68587 -87.21173 29016 ft 563 kts 18°
2026-05-07 03:36 38.71986 -87.18665 27428 ft 564 kts 19°
2026-05-07 03:36 38.75386 -87.16149 25826 ft 564 kts 20°
2026-05-07 03:36 38.78765 -87.13631 24796 ft 555 kts 20°
2026-05-07 03:37 38.82004 -87.11190 23996 ft 539 kts 20°
2026-05-07 03:37 38.85230 -87.08755 23144 ft 523 kts 20°
2026-05-07 03:37 38.88326 -87.06420 22292 ft 509 kts 20°
2026-05-07 03:37 38.91336 -87.04157 21489 ft 494 kts 20°
2026-05-07 03:38 38.94226 -87.02003 20743 ft 480 kts 20°
2026-05-07 03:38 38.97086 -86.99900 20030 ft 467 kts 20°
2026-05-07 03:38 38.99895 -86.97859 19532 ft 463 kts 19°
2026-05-07 03:38 39.02678 -86.95851 19241 ft 453 kts 19°
2026-05-07 03:39 39.05415 -86.93879 19118 ft 450 kts 19°
2026-05-07 03:39 39.08149 -86.91916 19061 ft 450 kts 19°
2026-05-07 03:39 39.10870 -86.89914 19034 ft 451 kts 20°
2026-05-07 03:39 39.13583 -86.87870 19021 ft 451 kts 21°
2026-05-07 03:40 39.16293 -86.85800 19013 ft 451 kts 21°
2026-05-07 03:40 39.18985 -86.83720 19015 ft 451 kts 21°
2026-05-07 03:40 39.21673 -86.81627 19009 ft 451 kts 22°
2026-05-07 03:40 39.24342 -86.79484 19013 ft 452 kts 24°
2026-05-07 03:41 39.26938 -86.77280 19014 ft 453 kts 25°
2026-05-07 03:41 39.29582 -86.74957 18967 ft 453 kts 26°
2026-05-07 03:41 39.32126 -86.72670 18651 ft 450 kts 26°
2026-05-07 03:41 39.34675 -86.70343 18230 ft 442 kts 27°
2026-05-07 03:42 39.37133 -86.68072 17783 ft 426 kts 26°
2026-05-07 03:42 39.39552 -86.65981 17224 ft 410 kts 24°
2026-05-07 03:42 39.41954 -86.64085 16547 ft 399 kts 21°
2026-05-07 03:42 39.44347 -86.62339 15859 ft 390 kts 20°
2026-05-07 03:43 39.46715 -86.60706 15215 ft 381 kts 19°
2026-05-07 03:43 39.49050 -86.59149 14568 ft 374 kts 18°
2026-05-07 03:43 39.51341 -86.57617 13929 ft 368 kts 20°
2026-05-07 03:43 39.53550 -86.55983 13240 ft 364 kts 24°
2026-05-07 03:44 39.55660 -86.54211 12544 ft 360 kts 28°
2026-05-07 03:44 39.57416 -86.51879 11856 ft 365 kts 50°
2026-05-07 03:44 39.59064 -86.49502 11418 ft 342 kts 31°
2026-05-07 03:44 39.60963 -86.47871 11142 ft 323 kts 25°
2026-05-07 03:45 39.62851 -86.46437 10887 ft 307 kts 23°
2026-05-07 03:45 39.64666 -86.45098 10633 ft 294 kts 23°
2026-05-07 03:45 39.66433 -86.43789 10378 ft 283 kts 23°
2026-05-07 03:45 39.68106 -86.42531 9983 ft 280 kts 24°
2026-05-07 03:46 39.69789 -86.41234 9590 ft 279 kts 25°
2026-05-07 03:46 39.71405 -86.39943 9177 ft 267 kts 26°
2026-05-07 03:46 39.72933 -86.38683 8856 ft 253 kts 27°
2026-05-07 03:46 39.74379 -86.37467 8493 ft 243 kts 28°
2026-05-07 03:47 39.75785 -86.36268 8007 ft 240 kts 28°
2026-05-07 03:47 39.77175 -86.35073 7523 ft 238 kts 30°
2026-05-07 03:47 39.78544 -86.33884 7053 ft 235 kts 30°
2026-05-07 03:47 39.79897 -86.32699 6553 ft 233 kts 31°
2026-05-07 03:48 39.81236 -86.31516 6054 ft 231 kts 32°
2026-05-07 03:48 39.82552 -86.30336 5551 ft 228 kts 32°
2026-05-07 03:48 39.83849 -86.29166 5058 ft 226 kts 32°
2026-05-07 03:48 39.85120 -86.28018 4573 ft 223 kts 31°
2026-05-07 03:49 39.86416 -86.26849 4251 ft 225 kts 31°
2026-05-07 03:49 39.87680 -86.25707 4109 ft 220 kts 31°
2026-05-07 03:49 39.88943 -86.24573 4053 ft 219 kts 31°
2026-05-07 03:49 39.90321 -86.23350 4030 ft 266 kts 31°
2026-05-07 03:50 39.91914 -86.21944 4014 ft 265 kts 31°
2026-05-07 03:50 39.93309 -86.20621 4002 ft 235 kts 41°
2026-05-07 03:50 39.93967 -86.18812 4012 ft 220 kts 85°
2026-05-07 03:50 39.93529 -86.16873 3933 ft 227 kts 124°
2026-05-07 03:51 39.92516 -86.15246 3439 ft 232 kts 132°
2026-05-07 03:51 39.91452 -86.13727 3189 ft 221 kts 133°
2026-05-07 03:51 39.90398 -86.12284 3085 ft 221 kts 134°
2026-05-07 03:51 39.89221 -86.10999 3042 ft 221 kts 156°
2026-05-07 03:52 39.87741 -86.10751 3037 ft 216 kts 190°
2026-05-07 03:52 39.86354 -86.11367 3032 ft 209 kts 217°
2026-05-07 03:52 39.85166 -86.12427 3012 ft 210 kts 220°
2026-05-07 03:52 39.83991 -86.13546 3016 ft 209 kts 221°
2026-05-07 03:53 39.82878 -86.14639 3003 ft 195 kts 222°
2026-05-07 03:53 39.81820 -86.15713 3007 ft 190 kts 223°
2026-05-07 03:53 39.80822 -86.16755 3006 ft 182 kts 225°
2026-05-07 03:53 39.79897 -86.17815 3004 ft 178 kts 228°
2026-05-07 03:54 39.78990 -86.18936 2972 ft 182 kts 229°
2026-05-07 03:54 39.78081 -86.20076 2810 ft 181 kts 229°
2026-05-07 03:54 39.77181 -86.21230 2456 ft 180 kts 230°
2026-05-07 03:54 39.76311 -86.22356 2161 ft 172 kts 230°
2026-05-07 03:55 39.75499 -86.23394 1864 ft 160 kts 230°
2026-05-07 03:55 39.74700 -86.24445 1716 ft 166 kts 230°
2026-05-07 03:55 39.73878 -86.25526 1537 ft 170 kts 227°
2026-05-07 03:55 39.73022 -86.26603 1240 ft 171 kts 226°
2026-05-07 03:56 39.72163 -86.27696 914 ft 173 kts 226°
2026-05-07 03:56 39.71391 -86.28704 801 ft 137 kts 226°
2026-05-07 03:56 39.70961 -86.29255 797 ft 31 kts 226°
2026-05-07 03:56 39.70850 -86.29388 796 ft 18 kts 221°
2026-05-07 03:57 39.70753 -86.29520 799 ft 29 kts 232°
2026-05-07 03:57 39.70700 -86.29749 800 ft 23 kts 281°
2026-05-07 03:57 39.70778 -86.29778 799 ft 12 kts 37°
2026-05-07 03:57 39.70842 -86.29700 798 ft 13 kts 44°
2026-05-07 03:58 39.70905 -86.29619 797 ft 14 kts 44°
2026-05-07 03:58 39.70989 -86.29512 795 ft 20 kts 44°
2026-05-07 03:58 39.71103 -86.29403 796 ft 19 kts 22°
2026-05-07 03:58 39.71232 -86.29389 793 ft 19 kts 355°
2026-05-07 03:59 39.71359 -86.29403 792 ft 17 kts 352°
2026-05-07 03:59 39.71438 -86.29477 790 ft 12 kts 328°
2026-05-07 03:59 39.71448 -86.29485 790 ft 0 kts 327°